Location: Prague
(50.0830°N, 14.4670°E)
Time: 05:35:21
(UTC+01:00)

KAITUO 1B - Visible Passes

Search period start: 26 November 2020 00:00
Search period end: 06 December 2020 00:00
Orbit: 492 x 514 km, 97.4° (Epoch: 25 November)

Date Brightness Start Highest point End Pass type
(mag) Time Alt. Az. Time Alt. Az. Time Alt. Az.
26 Nov ? 05:31:41 10° NE 05:33:56 16° E 05:36:11 10° SE visible
26 Nov ? 17:47:04 10° S 17:50:42 55° W 17:54:20 10° NNW visible
27 Nov ? 06:45:51 10° N 06:49:31 78° WNW 06:53:08 10° SSW visible
27 Nov ? 17:28:25 10° SSE 17:32:06 89° ESE 17:35:49 10° NNW visible
28 Nov ? 06:27:18 10° NNE 06:30:57 64° ESE 06:34:32 10° S visible
28 Nov ? 17:09:58 10° SSE 17:13:35 55° ENE 17:17:11 10° N visible
28 Nov ? 18:45:45 10° WSW 18:47:44 14° W 18:49:43 10° WNW visible
29 Nov ? 06:08:52 10° NNE 06:12:19 38° E 06:15:44 10° SSE visible
29 Nov ? 16:51:43 10° SE 16:55:05 34° ENE 16:58:26 10° N visible
29 Nov ? 18:26:07 10° SW 18:28:59 21° W 18:31:53 10° NW visible
30 Nov ? 05:50:36 10° NE 05:53:38 24° E 05:56:40 10° SSE visible
30 Nov ? 18:06:57 10° SSW 18:10:18 33° W 18:13:40 10° NNW visible
01 Dec ? 05:32:35 10° NE 05:34:54 16° E 05:37:12 10° SE visible
01 Dec ? 17:48:02 10° S 17:51:39 53° W 17:55:16 10° NNW visible
02 Dec ? 05:15:54 10° E 05:16:07 10° E 05:16:20 10° E visible
02 Dec ? 06:46:47 10° N 06:50:26 76° WNW 06:54:04 10° SSW visible
02 Dec ? 17:29:22 10° SSE 17:33:02 89° W 17:36:44 10° NNW visible
03 Dec ? 06:28:12 10° NNE 06:31:51 65° ESE 06:35:28 10° S visible
03 Dec ? 17:10:53 10° SSE 17:14:28 56° ENE 17:18:05 10° N visible
03 Dec ? 18:46:45 10° WSW 18:48:39 14° W 18:50:32 10° WNW visible
04 Dec ? 06:09:44 10° NNE 06:13:12 39° E 06:16:39 10° S visible
04 Dec ? 16:52:35 10° SE 16:55:57 35° ENE 16:59:19 10° N visible
04 Dec ? 18:27:03 10° SW 18:29:52 21° W 18:32:43 10° NW visible
05 Dec ? 05:51:26 10° NE 05:54:30 25° E 05:57:33 10° SSE visible
05 Dec ? 16:34:31 10° ESE 16:37:28 23° ENE 16:40:24 10° NNE visible
05 Dec ? 18:07:50 10° SSW 18:11:09 32° W 18:14:29 10° NNW visible
